TimeMST,TemperatureF,Dew PointF,Humidity,Sea Level PressureIn,VisibilityMPH,Wind Direction,Wind SpeedMPH,Gust SpeedMPH,PrecipitationIn,Events,Conditions,WindDirDegrees,DateUTC
12:53 AM,75.9,70.0,82,29.80,10.0,South,3.5,-,N/A,,Mostly Cloudy,170,2013-07-21 07:53:00
1:53 AM,75.9,70.0,82,29.78,10.0,SSE,5.8,-,N/A,,Partly Cloudy,150,2013-07-21 08:53:00
2:53 AM,75.9,69.1,79,29.80,10.0,SSE,5.8,-,N/A,,Partly Cloudy,150,2013-07-21 09:53:00
3:53 AM,75.9,69.1,79,29.81,10.0,South,4.6,-,N/A,,Scattered Clouds,170,2013-07-21 10:53:00
4:53 AM,75.9,68.0,76,29.81,10.0,SSE,8.1,-,N/A,,Overcast,150,2013-07-21 11:53:00
5:53 AM,75.9,68.0,76,29.83,10.0,SSE,9.2,-,N/A,,Overcast,150,2013-07-21 12:53:00
6:53 AM,77.0,66.9,71,29.85,10.0,SE,9.2,-,N/A,,Overcast,140,2013-07-21 13:53:00
7:53 AM,79.0,66.9,66,29.86,10.0,South,5.8,-,N/A,,Overcast,180,2013-07-21 14:53:00
8:53 AM,81.0,66.0,60,29.86,10.0,South,4.6,-,N/A,,Mostly Cloudy,190,2013-07-21 15:53:00
9:53 AM,84.0,64.9,53,29.86,10.0,SSE,10.4,-,N/A,,Mostly Cloudy,160,2013-07-21 16:53:00
10:53 AM,84.9,64.0,49,29.86,10.0,South,9.2,-,N/A,,Clear,190,2013-07-21 17:53:00
11:53 AM,87.1,60.1,40,29.84,10.0,Variable,5.8,-,N/A,,Clear,0,2013-07-21 18:53:00
12:53 PM,90.0,61.0,38,29.81,10.0,NNW,10.4,-,N/A,,Scattered Clouds,330,2013-07-21 19:53:00
1:53 PM,89.1,62.1,40,29.81,10.0,Variable,6.9,-,N/A,,Partly Cloudy,0,2013-07-21 20:53:00
2:53 PM,91.0,62.1,38,29.79,10.0,North,-9999.0,-,N/A,,Mostly Cloudy,0,2013-07-21 21:53:00
3:53 PM,89.1,63.0,42,29.79,10.0,NW,12.7,18.4,N/A,,Overcast,320,2013-07-21 22:53:00
4:53 PM,84.9,66.0,53,29.79,10.0,North,16.1,-,0.00,,Clear,350,2013-07-21 23:53:00
5:53 PM,88.0,64.9,46,29.78,10.0,NNW,10.4,-,N/A,,Clear,330,2013-07-22 00:53:00
6:53 PM,86.0,66.0,51,29.80,10.0,NNW,10.4,-,N/A,,Partly Cloudy,330,2013-07-22 01:53:00
7:53 PM,84.9,64.9,51,29.82,10.0,NW,8.1,-,N/A,,Scattered Clouds,320,2013-07-22 02:53:00
8:53 PM,82.9,66.9,58,29.84,10.0,WSW,5.8,-,N/A,,Clear,240,2013-07-22 03:53:00
9:53 PM,81.0,68.0,65,29.86,10.0,West,4.6,-,N/A,,Clear,260,2013-07-22 04:53:00
10:53 PM,80.1,68.0,67,29.87,10.0,WSW,5.8,-,N/A,,Clear,250,2013-07-22 05:53:00
11:53 PM,78.1,68.0,71,29.88,10.0,West,4.6,-,N/A,,Clear,270,2013-07-22 06:53:00